[[{"header":{"parameterUnit":"m.s-1","parameterCategory":1,"la1":30.2991,"la2":30.254,"lo1":-89.0895,"lo2":-89.0444,"dy":0.0017,"dx":0.0017,"nx":28,"ny":28,"refTime":"2023-10-30T03:00:00:Z","depth":0,"parameterNumber":2,"parameterNumberName":"U-component_of_WINDS"},"data":[0,0,0,0,0,0,0,0,0,0,0,0,0,0,0,0,0,0,0,0,0,0,0,0,0,0,0,0,0,0,0,0,0,0,0,0,0,0,0,0,0,0,0,0,0,0,0,0,0,0,0,0,0,0,0,0,0,0,-0.0991,-0.0991,0,-0.1015,-0.1016,-0.1016,-0.1011,-0.1011,-0.101,-0.101,-0.1037,-0.1038,-0.1039,0,0,0,0,0,0,0,0,0,0,0,0,0,-0.0941,-0.0942,-0.0991,-0.0991,-0.0992,-0.1015,-0.1016,-0.1016,-0.1011,-0.1011,-0.101,-0.1009,-0.1036,-0.1038,-0.1039,0,0,0,0,0,0,0,0,0,0,0,0,0,-0.0964,-0.0942,-0.0991,-0.0992,-0.0992,-0.1015,-0.1016,-0.1016,-0.1011,-0.101,-0.101,-0.1009,-0.1036,-0.1037,-0.1039,-0.1063,0,0,-0.1044,-0.1045,0,0,0,0,0,0,0,0,-0.0963,-0.0966,-0.0992,-0.0992,-0.0992,-0.1009,-0.1008,-0.1032,-0.1011,-0.1004,-0.101,-0.1009,-0.1028,-0.1031,-0.1037,-0.1065,-0.1066,-0.1044,-0.1046,-0.1046,-0.1047,0,0,0,0,0,0,0,-0.0961,-0.0965,-0.1001,-0.0992,-0.0992,-0.0991,-0.0994,-0.1012,-0.102,-0.1005,-0.1004,-0.1007,-0.1028,-0.1035,-0.1037,-0.1066,-0.1044,-0.1046,-0.1047,-0.1048,-0.1114,-0.1114,0,0,0,0,0,0,-0.0959,-0.0963,-0.1,-0.1002,-0.0975,-0.0993,-0.0996,-0.1005,-0.102,-0.1021,-0.1008,-0.1007,-0.1032,-0.1035,-0.1038,-0.1067,-0.1046,-0.1048,-0.1049,-0.1113,-0.1114,-0.1115,0,0,0,0,0,0,-0.0958,-0.0962,-0.0999,-0.0982,-0.0987,-0.0994,-0.1005,-0.1006,-0.1012,-0.1022,-0.1023,-0.1013,-0.1032,-0.1036,-0.1057,-0.1068,-0.1049,-0.105,-0.1112,-0.1113,-0.1114,-0.1125,0,0,0,0,0,0,-0.0956,-0.0962,-0.0971,-0.0983,-0.0988,-0.1017,-0.1005,-0.1007,-0.1015,-0.1014,-0.1027,-0.1029,-0.1032,-0.1054,-0.1058,-0.107,-0.1052,-0.1111,-0.1113,-0.1114,-0.1124,-0.1126,-0.1128,0,0,0,0,0,-0.0955,-0.0974,-0.0972,-0.0976,-0.1,-0.1018,-0.1021,-0.1023,-0.1016,-0.1025,-0.1031,-0.1028,-0.1065,-0.1056,-0.1061,-0.1073,-0.111,-0.1112,-0.1114,-0.1122,-0.1126,-0.1128,0,0,0,0,0,0,-0.0965,-0.0976,-0.0973,-0.0997,-0.1006,-0.1017,-0.1029,-0.1027,-0.1039,-0.1038,-0.1041,-0.1044,-0.1065,-0.1071,-0.106,-0.1096,-0.1087,-0.109,-0.1092,-0.1095,-0.1097,-0.1096,-0.1053,0,0,0,0,0,-0.097,-0.0983,-0.0992,-0.1012,-0.1017,-0.1022,-0.103,-0.103,-0.1041,-0.1045,-0.1053,-0.1063,-0.1077,-0.1086,-0.11,-0.1124,-0.1126,-0.1134,-0.1137,-0.1139,-0.1141,-0.1153,-0.1157,-0.112,-0.112,-0.112,0,0,-0.0981,-0.0988,-0.0997,-0.1014,-0.1022,-0.1035,-0.1025,-0.1041,-0.1051,-0.1048,-0.1068,-0.1073,-0.1085,-0.1107,-0.1118,-0.1113,-0.1152,-0.1141,-0.1142,-0.1144,-0.1156,-0.1159,-0.1162,-0.1121,-0.1121,-0.1121,0,0,-0.1007,-0.1014,-0.1031,-0.1038,-0.1049,-0.1052,-0.1056,-0.1066,-0.1069,-0.1089,-0.1086,-0.1098,-0.1122,-0.1131,-0.1138,-0.1165,-0.1163,-0.1169,-0.1182,-0.1194,-0.1197,-0.12,-0.1209,-0.1212,-0.1171,-0.1171,-0.1171,0,-0.1019,-0.104,-0.104,-0.1055,-0.1063,-0.1058,-0.1075,-0.1082,-0.1098,-0.1103,-0.1097,-0.1126,-0.1134,-0.1158,-0.1164,-0.117,-0.1174,-0.1168,-0.1196,-0.1199,-0.1201,-0.121,-0.1214,-0.1172,-0.1172,-0.1172,-0.1172,0,-0.1054,-0.1068,-0.108,-0.1094,-0.1102,-0.1119,-0.1121,-0.113,-0.1129,-0.1133,-0.1152,-0.1161,-0.1175,-0.118,-0.1181,-0.1204,-0.1201,-0.1196,-0.1186,-0.1206,-0.1214,-0.1218,-0.1173,-0.1173,-0.1173,-0.1172,0,0,-0.109,-0.1101,-0.1106,-0.1111,-0.1121,-0.1133,-0.1148,-0.1161,-0.1168,-0.1178,-0.1191,-0.121,-0.1205,-0.1213,-0.1214,-0.1224,-0.1244,-0.1218,-0.1218,-0.1222,-0.127,-0.1274,-0.1278,-0.1242,-0.1243,-0.1243,-0.1269,0,-0.1118,-0.1144,-0.1144,-0.1168,-0.1181,-0.1176,-0.1189,-0.1197,-0.12,-0.1211,-0.1215,-0.1228,-0.122,-0.1225,-0.1235,-0.124,-0.1254,-0.1238,-0.1255,-0.1255,-0.1252,-0.1282,-0.1287,-0.1311,-0.1272,-0.1273,-0.1273,0,-0.1154,-0.1164,-0.1189,-0.1196,-0.1201,-0.1213,-0.1224,-0.1235,-0.1243,-0.1245,-0.1252,-0.1251,-0.1266,-0.1255,-0.1276,-0.1265,-0.1271,-0.1275,-0.1275,-0.1278,-0.1266,-0.1286,-0.1318,-0.1322,-0.1278,-0.1278,-0.1277,0,-0.1178,-0.1197,-0.1214,-0.1219,-0.1228,-0.1236,-0.124,-0.1247,-0.1254,-0.1264,-0.1269,-0.128,-0.1287,-0.1296,-0.1297,-0.1289,-0.1318,-0.1307,-0.132,-0.132,-0.1327,-0.1327,-0.1361,-0.133,-0.133,-0.133,-0.133,0,-0.1209,-0.1225,-0.1225,-0.1236,-0.1253,-0.1252,-0.1269,-0.1272,-0.1278,-0.129,-0.1286,-0.1297,-0.1297,-0.1308,-0.1309,-0.1326,-0.1329,-0.1331,-0.1331,-0.1331,-0.1331,-0.1336,-0.1335,-0.1331,-0.1331,-0.1331,-0.133,0,-0.1239,-0.124,-0.1258,-0.1264,-0.1266,-0.1278,-0.1283,-0.1293,-0.1295,-0.1309,-0.1312,-0.1315,-0.1328,-0.1329,-0.1344,-0.1345,-0.1365,-0.1363,-0.1362,-0.1362,-0.1374,-0.1373,-0.1414,-0.1419,-0.1384,-0.1385,-0.1385,0,-0.126,-0.1271,-0.1278,-0.1284,-0.1288,-0.13,-0.1306,-0.1305,-0.1312,-0.1321,-0.133,-0.1342,-0.1351,-0.1371,-0.1375,-0.1386,-0.1385,-0.1398,-0.1387,-0.1386,-0.1385,-0.1385,-0.1386,-0.1401,-0.1401,-0.1402,-0.1402,0,-0.1296,-0.1295,-0.1304,-0.1313,-0.1321,-0.1329,-0.1336,-0.1342,-0.1341,-0.1349,-0.1361,-0.1368,-0.1382,-0.1394,-0.1404,-0.1409,-0.1405,-0.1405,-0.1409,-0.141,-0.1409,-0.1409,-0.1369,-0.1405,-0.1404,-0.1404,-0.1404,-0.1404,-0.1322,-0.1332,-0.1337,-0.1347,-0.1352,-0.1358,-0.1367,-0.1369,-0.1379,-0.139,-0.1388,-0.1401,-0.1407,-0.1421,-0.1426,-0.1436,-0.1431,-0.1437,-0.1438,-0.1439,-0.144,-0.1406,-0.1438,-0.1438,-0.1438,-0.1437,-0.1437,0,-0.1358,-0.136,-0.137,-0.1379,-0.1386,-0.1381,-0.1388,-0.1395,-0.1406,-0.1412,-0.142,-0.1433,-0.1444,-0.1448,-0.1458,-0.1465,-0.1464,-0.1468,-0.1468,-0.1469,-0.1444,-0.144,-0.1469,-0.1469,-0.1469,-0.1469,-0.1469,-0.1469,-0.1377,-0.1393,-0.1392,-0.141,-0.1413,-0.1425,-0.1429,-0.1434,-0.1438,-0.1453,-0.1461,-0.1463,-0.1468,-0.1478,-0.1487,-0.1488,-0.1492,-0.1497,-0.1497,-0.1474,-0.1471,-0.1468,-0.1464,-0.1497,-0.1498,-0.1521,-0.1521,-0.1521]},{"header":{"parameterUnit":"m.s-1","parameterCategory":1,"la1":30.2991,"la2":30.254,"lo1":-89.0895,"lo2":-89.0444,"dy":0.0017,"dx":0.0017,"nx":28,"ny":28,"refTime":"2023-10-30T03:00:00:Z","depth":0,"parameterNumber":3,"parameterNumberName":"V-component_of_WINDS"},"data":[0,0,0,0,0,0,0,0,0,0,0,0,0,0,0,0,0,0,0,0,0,0,0,0,0,0,0,0,0,0,0,0,0,0,0,0,0,0,0,0,0,0,0,0,0,0,0,0,0,0,0,0,0,0,0,0,0,0,-8.0955,-8.0956,0,-8.1069,-8.107,-8.1071,-8.0995,-8.0992,-8.0988,-8.0985,-8.1095,-8.1101,-8.1107,0,0,0,0,0,0,0,0,0,0,0,0,0,-8.0665,-8.067,-8.0955,-8.0956,-8.0958,-8.1069,-8.107,-8.1072,-8.0996,-8.0992,-8.0988,-8.0984,-8.1093,-8.11,-8.1107,0,0,0,0,0,0,0,0,0,0,0,0,0,-8.0786,-8.0672,-8.0955,-8.0933,-8.0933,-8.1068,-8.107,-8.1072,-8.0997,-8.0992,-8.0986,-8.0982,-8.109,-8.1099,-8.1108,-8.1269,0,0,-8.1136,-8.114,0,0,0,0,0,0,0,0,-8.0779,-8.0796,-8.0935,-8.0935,-8.0935,-8.1013,-8.1008,-8.1138,-8.0998,-8.0972,-8.0985,-8.0979,-8.1071,-8.1082,-8.1114,-8.1274,-8.1279,-8.1137,-8.1143,-8.1147,-8.1149,0,0,0,0,0,0,0,-8.0771,-8.0791,-8.1,-8.0937,-8.0937,-8.0916,-8.0928,-8.1032,-8.1049,-8.0974,-8.0969,-8.0984,-8.107,-8.1106,-8.1116,-8.128,-8.1137,-8.1145,-8.1151,-8.1154,-8.1577,-8.1583,0,0,0,0,0,0,-8.0765,-8.0785,-8.0996,-8.1003,-8.0843,-8.0926,-8.0938,-8.0993,-8.1048,-8.1051,-8.0988,-8.098,-8.1092,-8.1106,-8.112,-8.1311,-8.1147,-8.1155,-8.1161,-8.1571,-8.1578,-8.1585,0,0,0,0,0,0,-8.0759,-8.0785,-8.0991,-8.0893,-8.0917,-8.0936,-8.0998,-8.0998,-8.1033,-8.1059,-8.106,-8.1022,-8.1089,-8.1107,-8.1233,-8.1314,-8.116,-8.1168,-8.1565,-8.1574,-8.1581,-8.1696,0,0,0,0,0,0,-8.0751,-8.0783,-8.0846,-8.0895,-8.0923,-8.1105,-8.1003,-8.1004,-8.105,-8.104,-8.1091,-8.1094,-8.1086,-8.122,-8.1242,-8.1324,-8.1175,-8.1557,-8.1569,-8.1579,-8.1685,-8.1707,-8.1726,0,0,0,0,0,-8.0741,-8.0872,-8.0849,-8.0875,-8.1002,-8.111,-8.1126,-8.1116,-8.1057,-8.1119,-8.1136,-8.1092,-8.1302,-8.1233,-8.1258,-8.1343,-8.1552,-8.1566,-8.1578,-8.1675,-8.1703,-8.1726,0,0,0,0,0,0,-8.0829,-8.0878,-8.0853,-8.1004,-8.1054,-8.1097,-8.1175,-8.1145,-8.1211,-8.1199,-8.1182,-8.1194,-8.1326,-8.1347,-8.127,-8.1502,-8.1417,-8.1436,-8.1483,-8.1509,-8.1529,-8.1521,-8.1183,0,0,0,0,0,-8.0867,-8.0953,-8.0989,-8.1119,-8.1145,-8.1157,-8.1203,-8.1192,-8.1241,-8.1261,-8.1286,-8.1334,-8.141,-8.1461,-8.1532,-8.1688,-8.1697,-8.1759,-8.1779,-8.1796,-8.1812,-8.1895,-8.1923,-8.1627,-8.1627,-8.1626,0,0,-8.0944,-8.0981,-8.1036,-8.1138,-8.1175,-8.1262,-8.1174,-8.127,-8.1334,-8.1274,-8.1396,-8.1416,-8.1468,-8.161,-8.1673,-8.1631,-8.1896,-8.1813,-8.1826,-8.1833,-8.1911,-8.1939,-8.1964,-8.1635,-8.1634,-8.1632,0,0,-8.1129,-8.1167,-8.1279,-8.1319,-8.1377,-8.1384,-8.1411,-8.1459,-8.1471,-8.1593,-8.155,-8.1625,-8.1757,-8.1796,-8.1833,-8.2035,-8.1997,-8.2058,-8.2166,-8.2247,-8.2271,-8.2291,-8.2362,-8.2388,-8.2074,-8.2074,-8.2074,0,-8.1217,-8.1349,-8.134,-8.144,-8.1485,-8.1438,-8.155,-8.1588,-8.1666,-8.1697,-8.165,-8.1816,-8.1848,-8.1997,-8.2047,-8.2079,-8.2107,-8.2052,-8.2269,-8.2289,-8.2308,-8.2376,-8.2403,-8.2081,-8.208,-8.208,-8.2079,0,-8.1454,-8.1547,-8.163,-8.1709,-8.1764,-8.1869,-8.1874,-8.193,-8.1914,-8.1925,-8.2049,-8.2086,-8.2164,-8.2199,-8.2183,-8.2347,-8.2319,-8.2271,-8.2186,-8.2344,-8.2407,-8.2433,-8.2091,-8.2089,-8.2087,-8.2085,0,0,-8.1697,-8.1772,-8.1802,-8.1838,-8.1899,-8.1969,-8.2071,-8.2151,-8.2199,-8.2254,-8.2339,-8.2453,-8.2409,-8.2451,-8.2439,-8.2511,-8.2667,-8.2453,-8.2454,-8.2491,-8.2849,-8.2884,-8.2915,-8.2643,-8.2648,-8.2652,-8.2844,0,-8.1886,-8.2068,-8.2063,-8.2231,-8.2316,-8.2273,-8.2362,-8.2408,-8.2422,-8.2493,-8.2506,-8.2587,-8.2524,-8.2549,-8.2618,-8.2634,-8.2739,-8.262,-8.272,-8.2723,-8.2708,-8.2948,-8.2986,-8.3165,-8.2869,-8.2873,-8.2876,0,-8.213,-8.2197,-8.2375,-8.2424,-8.2459,-8.254,-8.2612,-8.2682,-8.2733,-8.2737,-8.2786,-8.2763,-8.2865,-8.2778,-8.2917,-8.2837,-8.2877,-8.2891,-8.2898,-8.2906,-8.2809,-8.2962,-8.3222,-8.3249,-8.2915,-8.2912,-8.2909,0,-8.2289,-8.2422,-8.2546,-8.2578,-8.2639,-8.2697,-8.2724,-8.2771,-8.2819,-8.2881,-8.2912,-8.2985,-8.3024,-8.308,-8.3077,-8.3014,-8.3218,-8.3131,-8.3223,-8.3223,-8.3267,-8.3264,-8.3537,-8.3295,-8.3294,-8.3294,-8.3293,0,-8.2499,-8.261,-8.2619,-8.2695,-8.2817,-8.2809,-8.2929,-8.295,-8.2992,-8.307,-8.3036,-8.311,-8.3101,-8.3174,-8.3172,-8.3287,-8.3305,-8.331,-8.3308,-8.3313,-8.3313,-8.3339,-8.3326,-8.3301,-8.3299,-8.3298,-8.3297,0,-8.2697,-8.2708,-8.284,-8.2888,-8.2902,-8.299,-8.303,-8.3101,-8.3112,-8.3211,-8.3234,-8.325,-8.3334,-8.3337,-8.3433,-8.3431,-8.3572,-8.3556,-8.3556,-8.3553,-8.3644,-8.3636,-8.3943,-8.3983,-8.3715,-8.3718,-8.372,0,-8.283,-8.2915,-8.2973,-8.3024,-8.3056,-8.3138,-8.3188,-8.3183,-8.3236,-8.3301,-8.3364,-8.3446,-8.3511,-8.3648,-8.3667,-8.374,-8.3725,-8.3828,-8.3736,-8.3738,-8.3726,-8.3721,-8.3729,-8.3846,-8.3849,-8.3851,-8.3853,0,-8.3066,-8.3067,-8.3142,-8.3219,-8.328,-8.334,-8.3395,-8.3438,-8.3439,-8.35,-8.3588,-8.3639,-8.3738,-8.382,-8.3891,-8.3916,-8.3885,-8.3882,-8.3907,-8.3913,-8.3909,-8.3912,-8.3604,-8.3875,-8.3873,-8.3871,-8.387,-8.3869,-8.3235,-8.3308,-8.3361,-8.3445,-8.3487,-8.3539,-8.3609,-8.363,-8.3704,-8.3786,-8.3778,-8.3875,-8.3923,-8.4017,-8.4048,-8.4123,-8.4087,-8.4123,-8.4132,-8.4141,-8.4151,-8.3899,-8.4135,-8.4135,-8.4134,-8.4134,-8.4133,0,-8.3468,-8.3501,-8.3578,-8.3658,-8.3724,-8.3692,-8.3751,-8.3808,-8.3895,-8.3944,-8.401,-8.411,-8.4189,-8.4215,-8.4291,-8.4345,-8.4333,-8.4365,-8.4361,-8.4367,-8.4179,-8.415,-8.4374,-8.4374,-8.4374,-8.4374,-8.4374,-8.4374,-8.3597,-8.372,-8.3728,-8.387,-8.39,-8.3998,-8.4034,-8.4082,-8.4121,-8.4236,-8.4303,-8.432,-8.4359,-8.4438,-8.4508,-8.4514,-8.4543,-8.4581,-8.4581,-8.4404,-8.438,-8.4357,-8.4329,-8.4588,-8.4588,-8.4762,-8.4764,-8.4765]}]]